Flag Weather past 2 weeks in Erding, Bavaria, Germany

Now
36 °F

Fog.


Feels Like: 32 °F
Forecast: 36 / 53 °F
Wind: 5 mph from East

Location: Munich / Franz Josef Strauss Airport

Current Time: Nov 23, 2014 at 11:08:39 AM

Latest Report: Nov 23, 2014 at 10:20 AM


Visibility: 0 mi

Pressure: 30.27 "Hg

Humidity: 100%

Dew point: 36 °F

Location of ErdingLocation

Historic Weather in Erding — Graph

°F

Erding temperature yesterday

Maximum temperature yesterday: 48 °F (at 2:20 PM)
Minimum temperature yesterday: 34 °F (at 11:20 PM)
Average temperature yesterday: 40 °F

Past Weeks' High & Low Weather Summary

 TemperatureHumidityPressure
High54 °F (Nov 8, 12:20 PM)100% (Nov 8, 9:50 AM)30.30 "Hg (Nov 8, 9:50 AM)
Low30 °F (Nov 17, 2:20 AM)67% (Nov 8, 12:20 PM)29.47 "Hg (Nov 15, 10:20 PM)
Average43 °F94%29.88 "Hg
* Reported Nov 8 9:20 AM — Nov 23 9:50 AM, Erding, Weather by CustomWeather, © 2014

Note: Actual official high and low records may vary slightly from our data, if they occured in-between our weather recording intervals... More about our weather records

Advertising

Erding weather history for previous 24 hours

 ConditionsComfort  
Time TempWeatherWind HumidityBarometerVisibility
9:50 AM
Nov 23
36 °FFog.5 mph100%30.27 "Hg0 mi
9:20 AM36 °FFog.3 mph100%30.24 "Hg0 mi
8:50 AM34 °FFog.3 mph100%30.24 "Hg0 mi
8:20 AM34 °FFog.6 mph100%30.24 "Hg0 mi
7:50 AM34 °FFog.7 mph100%30.24 "Hg0 mi
7:20 AM34 °FFog.6 mph100%30.21 "Hg0 mi
6:50 AM34 °FFog.6 mph100%30.21 "Hg0 mi
6:20 AM34 °FFog.7 mph100%30.21 "Hg0 mi
5:50 AM34 °FFog.3 mph100%30.21 "Hg0 mi
5:20 AM36 °FFog.2 mph100%30.21 "Hg1 mi
4:50 AM36 °FChilly.3 mph100%30.21 "Hg1 mi
4:20 AM36 °FSnow. Overcast.5 mph100%30.21 "Hg2 mi
3:50 AM36 °FSnow. Overcast.2 mph100%30.21 "Hg2 mi
3:20 AM36 °FFog.5 mph100%30.21 "Hg2 mi
2:50 AM36 °FFog.5 mph100%30.21 "Hg2 mi
2:20 AM34 °FFog.3 mph100%30.21 "Hg2 mi
1:50 AM36 °FFog.5 mph93%30.21 "Hg2 mi
1:20 AM34 °FFog.6 mph100%30.21 "Hg2 mi
12:50 AM34 °FFog.6 mph100%30.21 "Hg3 mi
12:20 AM34 °FFog.5 mph100%30.21 "Hg3 mi
11:50 PM
Nov 22
34 °FFog.6 mph100%30.21 "Hg3 mi
11:20 PM34 °FClear.5 mph100%30.21 "Hg4 mi
10:50 PM36 °FClear.3 mph100%30.21 "Hg4 mi
10:20 PM36 °FPassing clouds.5 mph100%30.21 "Hg4 mi
9:50 PM37 °FPassing clouds.5 mph93%30.21 "Hg4 mi
9:20 PM37 °FPassing clouds.5 mph100%30.18 "Hg4 mi
8:50 PM37 °FClear.5 mph100%30.18 "Hg4 mi
8:20 PM39 °FPassing clouds.5 mph93%30.18 "Hg4 mi
7:50 PM37 °FClear.6 mph100%30.18 "Hg4 mi
7:20 PM39 °FPassing clouds.6 mph93%30.18 "Hg4 mi
6:50 PM39 °FClear.6 mph100%30.18 "Hg5 mi
6:20 PM41 °FClear.5 mph93%30.18 "Hg5 mi
5:50 PM41 °FClear.6 mph93%30.18 "Hg5 mi
5:20 PM43 °FClear.5 mph93%30.18 "Hg5 mi
4:50 PM45 °FClear.5 mph87%30.18 "Hg6 mi
4:20 PM46 °FClear.3 mph82%30.18 "Hg6 mi
3:50 PM46 °FSunny.7 mph87%30.18 "Hg10 mi
3:20 PM48 °FPassing clouds.7 mph82%30.18 "HgN/A
2:50 PM48 °FPassing clouds.6 mph82%30.18 "HgN/A
2:20 PM48 °FPassing clouds.5 mph87%30.18 "HgN/A
1:50 PM46 °FPassing clouds.6 mph87%30.18 "HgN/A
1:20 PM46 °FPassing clouds.6 mph87%30.18 "HgN/A
12:50 PM45 °FClear.5 mph93%30.18 "Hg6 mi
12:20 PM45 °FBroken clouds.5 mph87%30.18 "Hg5 mi
11:50 AM43 °FBroken clouds.6 mph93%30.18 "Hg5 mi
11:20 AM41 °FPartly sunny.6 mph93%30.21 "Hg4 mi
Weather by CustomWeather, © 2014

See weather overviewHow to use our weather pages